Find Feng Yun 4B

NORAD ID: 48808 Int'l Des: 2021-047 Owner: NSMC Country: CN operational
HEOCIRCULARGSO

現在のビュー

3D地球を読み込み中...

About Feng Yun 4B

Feng Yun 4B (NORAD 48808) is a satellite launched Jun 2, 2021 by NSMC of CN. It operates in HEO, CIRCULAR, GSO orbit with a mass of 5380.00 kg.

次回通過

Passes for default location (London). Set your location on the main map for personalized predictions.

高度履歴

Loading altitude history...

軌道要素

1 48808U 21047A 26194.29654177 -.00000331 00000-0 00000-0 0 9993
2 48808 0.2151 79.7291 0005778 272.9281 149.8180 1.00263746 18832
Epoch: Jul 13, 2026 • Age: 19 hours

現在のステータス

高度 35782.7 km
遠地点 / 近地点 N/A
速度 3.08 km/s
衛星直下点 -0.03°S, 104.59°E
打ち上げ日 Jun 2, 2021
運用期間 5.1 years
タイプ other

技術仕様

分類 Payload
質量 5380.00 kg
乾燥質量 3000.00 kg
総質量 5380.00 kg
長さ 4.20 m
直径 3.30 m
スパン 10.00 m
形状 Box + panel
製造者 SISE
バスタイプ FY-4
フェーズステータス In Orbit
所有者/国 NSMC/CN

Most Searched